Location: Banios
(43.0451°N, 0.2335°E)
Time: 13:15:47
(UTC+00:00)

FALCON 9 DEB - Pass Details

Date: 25 January 2021
Orbit: 372 x 389 km, 53.0° (Epoch: 25 February)

Event Time Altitude Azimuth Distance (km) Brightness Sun altitude
Exits shadow 05:53:39 10° 210° (SSW) 1,377 5.5 -15.9°
Maximum altitude 05:56:33 41° 138° (SE) 564 4.1 -15.4°
Drops below altitude 10° 05:59:30 10° 66° (ENE) 1,387 6.5 -14.9°
Sets 06:01:36 0° 59° (ENE) 2,238 7.5 -14.5°
